Iowa City, IA

10:17 AM CST on December 12, 2019 (GMT -0600)
Iowa City Municipal

Weather History for KIOW - October, 2019

Change the Weather History Date:

Friday, October 25, 2019

  Actual Average Record
Temperature  
Mean Temperature 42 °F 49 °F  
Max Temperature 54 °F 59 °F 81 °F (1989)
Min Temperature 30 °F 39 °F 23 °F (1966)
Degree Days  
Heating Degree Days 23 16  
Month to date heating degree days 326 307  
Since 1 July heating degree days 333 419  
Cooling Degree Days 0 0  
Month to date cooling degree days 18 10  
Year to date cooling degree days 1175 912  
Moisture  
Dew Point 29 °F    
Average Humidity 61    
Maximum Humidity 89    
Minimum Humidity 32    
Precipitation  
Precipitation 0.00 in 0.09 in 0.79 in (1986)
Month to date precipitation 1.91 2.30  
Year to date precipitation 38.88 31.84  
Sea Level Pressure  
Sea Level Pressure 30.34 in    
Wind  
Wind Speed 1 mph (SSW)    
Max Wind Speed 9 mph    
Max Gust Speed 15 mph    
Visibility 10 miles    
Events      
T = Trace of Precipitation, MM = Missing Value Source: NWS Daily Summary

Daily Weather History Graph

Daily Weather History Graph

Search for Another Location

Airport or City:

Astronomy

Oct. 25, 2019 Rise Set
Actual Time 7:29 AM CDT 6:10 PM CDT
Civil Twilight 7:01 AM CDT 6:38 PM CDT
Nautical Twilight 6:28 AM CDT 7:11 PM CDT
Astronomical Twilight 5:56 AM CDT 7:43 PM CDT
Moon 4:08 AM CDT (10/25) 5:15 PM CDT (10/25)
Length of Visible Light 11h 37m
Length of Day
10h 40m
Waning Crescent, 9% of the Moon is Illuminated
Oct 25
Waning Crescent
Oct 27
New
Nov 4
First Quarter
Nov 12
Full
Nov 19
Last Quarter

Hourly Weather History & Observations

Time (CDT) Temp. Dew Point Humidity Pressure Visibility Wind Dir Wind Speed Gust Speed Precip Events Conditions
12:52 AM 32.0 °F 28.0 °F 85% 30.40 in 7.0 mi Calm Calm - N/A   Clear
1:52 AM 32.0 °F 28.0 °F 85% 30.39 in 10.0 mi Calm Calm - N/A   Clear
2:52 AM 32.0 °F 28.9 °F 88% 30.40 in 10.0 mi Calm Calm - N/A   Clear
3:52 AM 33.1 °F 28.9 °F 85% 30.40 in 10.0 mi Calm Calm - N/A   Clear
4:52 AM 33.1 °F 30.0 °F 89% 30.41 in 8.0 mi Calm Calm - N/A   Clear
5:52 AM 34.0 °F 30.0 °F 85% 30.42 in 8.0 mi Calm Calm - N/A   Clear
6:52 AM 35.1 °F 30.9 °F 85% 30.42 in 10.0 mi Calm Calm - N/A   Clear
7:52 AM 35.1 °F 30.9 °F 85% 30.41 in 10.0 mi Calm Calm - N/A   Clear
8:52 AM 36.0 °F 32.0 °F 86% 30.43 in 10.0 mi Calm Calm - N/A   Clear
9:52 AM 39.9 °F 32.0 °F 73% 30.43 in 10.0 mi Calm Calm - N/A   Clear
10:52 AM 43.0 °F 33.1 °F 68% 30.41 in 10.0 mi Calm Calm - N/A   Clear
11:52 AM 48.0 °F 30.0 °F 50% 30.40 in 10.0 mi WSW 5.8 mph - N/A   Clear
12:52 PM 48.9 °F 30.0 °F 48% 30.37 in 10.0 mi South 10.4 mph - N/A   Clear
1:52 PM 51.1 °F 28.9 °F 43% 30.32 in 10.0 mi Calm Calm - N/A   Clear
2:52 PM 52.0 °F 28.9 °F 41% 30.30 in 10.0 mi West 6.9 mph - N/A   Clear
3:52 PM 53.1 °F 25.0 °F 34% 30.28 in 10.0 mi Calm Calm - N/A   Clear
4:52 PM 53.1 °F 26.1 °F 35% 30.27 in 10.0 mi Variable 3.5 mph - N/A   Clear
5:52 PM 50.0 °F 26.1 °F 39% 30.25 in 10.0 mi South 3.5 mph - N/A   Clear
6:52 PM 43.0 °F 30.9 °F 62% 30.26 in 10.0 mi Calm Calm - N/A   Clear
7:52 PM 42.1 °F 30.9 °F 65% 30.25 in 10.0 mi Calm Calm - N/A   Clear
8:52 PM 39.0 °F 28.9 °F 67% 30.26 in 10.0 mi Calm Calm - N/A   Clear
9:52 PM 36.0 °F 28.9 °F 76% 30.25 in 10.0 mi Calm Calm - N/A   Clear
10:52 PM 33.1 °F 28.0 °F 82% 30.24 in 10.0 mi Calm Calm - N/A   Clear
11:52 PM 34.0 °F 28.0 °F 79% 30.22 in 10.0 mi Calm Calm - N/A   Clear